When you browse on this site, cookies collect data to enhance your experience and personalize the content and advertising you see.
Visit our Privacy Policy to learn more. By continuing to use the site, you agree to this use of cookies and data.
  • In Latvia
  • List of Countries
  • For 7 days
  • Water Temperature
  • Satellite Maps
  • Weather Map
  • Weather Widgets
  • user-avatar
    Login

    Hourly Weather Salta

    Today, 26 May, Sunday

    Time Temperature Precipitation Wind Pressure Humidity
    00:00 +9°C° 0 mm 2 mps 647 mmHg 54%
    01:00 +9°C° 0 mm 2 mps 647 mmHg 52%
    02:00 +9°C° 0 mm 2 mps 647 mmHg 50%
    03:00 +9°C° 0 mm 2 mps 647 mmHg 48%
    04:00 +10°C° 0 mm 2 mps 647 mmHg 47%
    05:00 +10°C° 0 mm 2 mps 647 mmHg 45%
    06:00 +12°C° 0 mm 2 mps 647 mmHg 42%
    07:00 +13°C° 0 mm 2 mps 648 mmHg 40%
    08:00 +14°C° 0 mm 2 mps 649 mmHg 37%
    09:00 +18°C° 0 mm 2 mps 649 mmHg 33%
    10:00 +21°C° 0 mm 2 mps 650 mmHg 29%
    11:00 +26°C° 0 mm 2 mps 651 mmHg 25%
    12:00 +27°C° 0 mm 2 mps 651 mmHg 24%
    13:00 +27°C° 0 mm 2 mps 651 mmHg 23%
    14:00 +28°C° 0 mm 3 mps 650 mmHg 22%
    15:00 +26°C° 0 mm 2 mps 650 mmHg 25%
    16:00 +24°C° 0 mm 2 mps 650 mmHg 29%
    17:00 +23°C° 0 mm 2 mps 649 mmHg 32%
    18:00 +19°C° 0 mm 2 mps 649 mmHg 39%
    19:00 +16°C° 0 mm 2 mps 649 mmHg 47%
    20:00 +14°C° 0 mm 2 mps 649 mmHg 54%
    21:00 +13°C° 0 mm 2 mps 649 mmHg 55%
    22:00 +13°C° 0 mm 2 mps 649 mmHg 56%
    23:00 +12°C° 0 mm 2 mps 649 mmHg 57%

    Tomorrow, 27 May, Monday

    Time Temperature Precipitation Wind Pressure Humidity
    00:00 +12°C° 0 mm 2 mps 649 mmHg 57%
    01:00 +12°C° 0 mm 2 mps 649 mmHg 57%
    02:00 +12°C° 0 mm 2 mps 648 mmHg 57%
    03:00 +10°C° 0 mm 2 mps 648 mmHg 57%
    04:00 +10°C° 0 mm 2 mps 648 mmHg 57%
    05:00 +10°C° 0 mm 2 mps 648 mmHg 56%
    06:00 +12°C° 0 mm 2 mps 648 mmHg 55%
    07:00 +12°C° 0 mm 2 mps 649 mmHg 54%
    08:00 +13°C° 0 mm 2 mps 649 mmHg 53%
    09:00 +15°C° 0 mm 2 mps 650 mmHg 49%
    10:00 +18°C° 0 mm 2 mps 650 mmHg 45%
    11:00 +21°C° 0 mm 3 mps 651 mmHg 41%
    12:00 +21°C° 0 mm 3 mps 650 mmHg 38%
    13:00 +22°C° 0 mm 3 mps 650 mmHg 36%
    14:00 +24°C° 0 mm 3 mps 649 mmHg 33%
    15:00 +22°C° 0 mm 3 mps 649 mmHg 38%
    16:00 +20°C° 0 mm 3 mps 649 mmHg 42%
    17:00 +19°C° 0 mm 2 mps 648 mmHg 47%
    18:00 +17°C° 0 mm 2 mps 649 mmHg 55%
    19:00 +15°C° 0 mm 2 mps 649 mmHg 62%
    20:00 +13°C° 0 mm 2 mps 649 mmHg 69%
    21:00 +13°C° 0 mm 2 mps 649 mmHg 70%
    22:00 +13°C° 0 mm 1 mps 649 mmHg 71%
    23:00 +12°C° 0 mm 1 mps 650 mmHg 72%

    Day after tomorrow, 28 May, Tuesday

    Time Temperature Precipitation Wind Pressure Humidity
    00:00 +12°C° 0 mm 1 mps 649 mmHg 73%
    01:00 +12°C° 0 mm 1 mps 649 mmHg 73%
    02:00 +12°C° 0 mm 1 mps 649 mmHg 74%
    03:00 +12°C° 0 mm 1 mps 649 mmHg 73%
    04:00 +11°C° 0 mm 1 mps 649 mmHg 72%
    05:00 +11°C° 0 mm 1 mps 648 mmHg 71%
    06:00 +12°C° 0 mm 1 mps 649 mmHg 67%
    07:00 +13°C° 0 mm 1 mps 650 mmHg 64%
    08:00 +13°C° 0 mm 1 mps 650 mmHg 60%
    09:00 +15°C° 0 mm 1 mps 651 mmHg 55%
    10:00 +18°C° 0 mm 2 mps 652 mmHg 51%
    11:00 +20°C° 0 mm 2 mps 652 mmHg 46%
    12:00 +20°C° 0 mm 2 mps 651 mmHg 44%
    13:00 +21°C° 0 mm 2 mps 651 mmHg 42%
    14:00 +22°C° 0 mm 3 mps 650 mmHg 40%
    15:00 +21°C° 0 mm 2 mps 650 mmHg 44%
    16:00 +20°C° 0 mm 2 mps 650 mmHg 48%
    17:00 +18°C° 0 mm 2 mps 649 mmHg 52%
    18:00 +18°C° 0 mm 1 mps 649 mmHg 60%
    19:00 +15°C° 0 mm 1 mps 649 mmHg 68%
    20:00 +13°C° 0 mm 1 mps 650 mmHg 76%
    21:00 +13°C° 0 mm 1 mps 650 mmHg 75%
    22:00 +13°C° 0 mm 1 mps 650 mmHg 75%
    23:00 +13°C° 0 mm 1 mps 650 mmHg 75%

    29 May, Wednesday

    Time Temperature Precipitation Wind Pressure Humidity
    00:00 +13°C° 0 mm 1 mps 650 mmHg 74%
    01:00 +13°C° 0 mm 1 mps 650 mmHg 74%
    02:00 +13°C° 0 mm 1 mps 650 mmHg 74%
    03:00 +13°C° 0 mm 1 mps 649 mmHg 73%
    04:00 +13°C° 0 mm 1 mps 649 mmHg 72%
    05:00 +12°C° 0 mm 1 mps 649 mmHg 71%
    06:00 +13°C° 0 mm 1 mps 649 mmHg 69%
    07:00 +14°C° 0 mm 1 mps 650 mmHg 68%
    08:00 +14°C° 0 mm 1 mps 650 mmHg 66%
    09:00 +16°C° 0 mm 1 mps 651 mmHg 64%
    10:00 +17°C° 0 mm 2 mps 651 mmHg 62%
    11:00 +19°C° 0 mm 2 mps 651 mmHg 61%
    12:00 +19°C° 0 mm 2 mps 650 mmHg 61%
    13:00 +20°C° 0 mm 2 mps 649 mmHg 60%
    14:00 +20°C° 0 mm 2 mps 648 mmHg 60%
    15:00 +20°C° 0 mm 2 mps 648 mmHg 63%
    16:00 +19°C° 0 mm 2 mps 648 mmHg 66%
    17:00 +20°C° 0 mm 1 mps 647 mmHg 69%
    18:00 +19°C° 0 mm 1 mps 648 mmHg 70%
    19:00 +16°C° 0 mm 1 mps 648 mmHg 71%
    20:00 +15°C° 0 mm 2 mps 648 mmHg 72%
    21:00 +15°C° 0 mm 2 mps 648 mmHg 71%
    22:00 +15°C° 0 mm 2 mps 648 mmHg 70%
    23:00 +15°C° 0 mm 2 mps 649 mmHg 70%

    30 May, Thursday

    Time Temperature Precipitation Wind Pressure Humidity
    00:00 +14°C° 0 mm 1 mps 648 mmHg 69%
    01:00 +14°C° 0 mm 1 mps 648 mmHg 69%
    02:00 +14°C° 0 mm 1 mps 648 mmHg 68%
    03:00 +14°C° 0 mm 1 mps 648 mmHg 68%
    04:00 +14°C° 0 mm 1 mps 648 mmHg 68%
    05:00 +13°C° 0 mm 1 mps 648 mmHg 68%
    06:00 +14°C° 0 mm 1 mps 649 mmHg 67%
    07:00 +14°C° 0 mm 1 mps 650 mmHg 67%
    08:00 +15°C° 0 mm 1 mps 650 mmHg 66%
    09:00 +16°C° 0 mm 1 mps 650 mmHg 64%
    10:00 +18°C° 0 mm 2 mps 651 mmHg 62%
    11:00 +19°C° 0 mm 2 mps 651 mmHg 60%
    12:00 +19°C° 0 mm 2 mps 650 mmHg 60%
    13:00 +20°C° 0 mm 3 mps 650 mmHg 59%
    14:00 +20°C° 0 mm 3 mps 649 mmHg 58%
    15:00 +19°C° 0 mm 3 mps 649 mmHg 63%
    16:00 +18°C° 0 mm 2 mps 649 mmHg 68%
    17:00 +17°C° 0 mm 2 mps 649 mmHg 72%
    18:00 +16°C° 0 mm 2 mps 649 mmHg 76%
    19:00 +15°C° 0 mm 2 mps 649 mmHg 80%
    20:00 +14°C° 0 mm 2 mps 650 mmHg 84%
    21:00 +14°C° 0.1 mm 2 mps 650 mmHg 83%
    22:00 +14°C° 0.1 mm 2 mps 650 mmHg 82%
    23:00 +14°C° 0.1 mm 2 mps 650 mmHg 81%

    31 May, Friday

    Time Temperature Precipitation Wind Pressure Humidity
    00:00 +14°C° 0.1 mm 2 mps 649 mmHg 79%
    01:00 +14°C° 0.1 mm 2 mps 649 mmHg 77%
    02:00 +14°C° 0.1 mm 2 mps 649 mmHg 75%
    03:00 +14°C° 0 mm 2 mps 648 mmHg 75%
    04:00 +14°C° 0 mm 2 mps 648 mmHg 74%
    05:00 +13°C° 0 mm 2 mps 648 mmHg 73%
    06:00 +14°C° 0 mm 2 mps 648 mmHg 73%
    07:00 +14°C° 0 mm 2 mps 648 mmHg 72%
    08:00 +14°C° 0 mm 2 mps 649 mmHg 71%
    09:00 +14°C° 0 mm 3 mps 649 mmHg 69%
    10:00 +16°C° 0 mm 3 mps 648 mmHg 68%
    11:00 +17°C° 0 mm 3 mps 648 mmHg 66%
    12:00 +18°C° 0.1 mm 3 mps 647 mmHg 65%
    13:00 +18°C° 0.1 mm 3 mps 647 mmHg 64%
    14:00 +19°C° 0.1 mm 3 mps 646 mmHg 62%
    15:00 +18°C° 0.1 mm 3 mps 646 mmHg 65%
    16:00 +17°C° 0.1 mm 3 mps 646 mmHg 67%
    17:00 +17°C° 0.1 mm 3 mps 646 mmHg 69%
    18:00 +16°C° 0.1 mm 3 mps 646 mmHg 69%
    19:00 +14°C° 0.1 mm 3 mps 647 mmHg 69%
    20:00 +14°C° 0.1 mm 2 mps 647 mmHg 68%
    21:00 +14°C° 0.1 mm 2 mps 647 mmHg 69%
    22:00 +14°C° 0.1 mm 2 mps 647 mmHg 69%
    23:00 +14°C° 0.1 mm 2 mps 647 mmHg 69%
    Show more